KC4LW Weather Reports


Display with metric or nautical units.
time (UTC)temp
F
wind
direction
speed
MPH
gust
MPH
rain 1hr
in
rain 24hr
in
rain mn
in
humidity
%
barometer
mb
20260905043111 76 216 0.0 3.0 0.00 0.00 0.00 95 1013.7
20260905041601 77 0 0.0 5.0 0.00 0.00 0.00 95 1014.0
20260905040107 77 241 0.0 4.0 0.00 0.00 0.00 95 1014.0
20260905034613 77 220 1.0 5.0 0.00 0.00 0.00 95 1013.8
20260905033102 77 0 0.0 6.0 0.00 0.00 0.00 95 1013.7
20260905031605 77 206 0.0 4.0 0.00 0.00 0.00 94 1013.6
20260905030106 77 251 1.0 3.0 0.00 0.00 0.00 94 1014.0
20260905024603 77 234 1.0 4.0 0.00 0.00 0.00 94 1014.0
20260905023100 77 207 2.0 5.0 0.00 0.00 0.00 93 1014.2
20260905021555 77 196 2.0 7.0 0.00 0.00 0.00 93 1014.0
20260905020104 77 223 3.0 7.0 0.00 0.00 0.00 93 1014.1
20260905014605 77 215 1.0 9.0 0.00 0.00 0.00 92 1014.0
20260905013103 78 178 2.0 9.0 0.00 0.00 0.00 92 1014.1
20260905011559 80 180 4.0 9.0 0.00 0.00 0.00 92 1013.9
20260905010056 82 0 0.0 1.0 0.00 0.00 0.00 94 1013.7
20260905004631 82 0 0.0 2.0 0.00 0.00 0.00 94 1013.1
20260905003058 82 104 1.0 3.0 0.00 0.00 0.00 93 1013.4
20260905001558 82 0 0.0 2.0 0.00 0.00 0.00 93 1013.5
20260905000108 82 0 0.0 2.0 0.00 0.00 0.00 93 1013.5
20260904234602 83 0 0.0 2.0 0.00 0.00 0.00 92 1013.1
20260904233105 83 217 1.0 3.0 0.00 0.00 0.00 92 1013.4
20260904231608 83 263 0.0 5.0 0.00 0.00 0.00 92 1013.6
20260904230129 83 0 1.0 3.0 0.00 0.00 0.00 92 1013.3
20260904224603 83 103 0.0 6.0 0.00 0.00 0.00 93 1013.2
20260904223105 83 98 0.0 3.0 0.00 0.00 0.00 93 1013.3
20260904221559 83 0 2.0 8.0 0.00 0.00 0.00 93 1013.2
20260904220058 83 96 2.0 7.0 0.00 0.00 0.00 93 1013.1
20260904214606 83 83 2.0 7.0 0.00 0.00 0.00 93 1013.1
20260904213104 83 87 2.0 8.0 0.00 0.00 0.00 92 1013.2
20260904211606 84 78 3.0 9.0 0.00 0.00 0.00 91 1013.2
20260904210108 84 98 1.0 9.0 0.00 0.00 0.00 91 1013.2
20260904204602 84 126 1.0 9.0 0.00 0.00 0.00 90 1013.3
20260904203109 85 65 3.0 10.0 0.00 0.00 0.00 88 1013.0
20260904201610 86 78 3.0 12.0 0.00 0.00 0.00 88 1012.9
20260904200106 85 90 2.0 10.0 0.00 0.00 0.00 88 1013.9
20260904194607 85 106 3.0 9.0 0.00 0.00 0.00 89 1014.0
20260904193058 85 57 3.0 9.0 0.00 0.00 0.00 88 1013.9
20260904191604 85 91 3.0 9.0 0.00 0.00 0.00 88 1013.6
20260904190059 85 112 1.0 7.0 0.00 0.00 0.00 87 1013.8
20260904184610 86 71 2.0 12.0 0.00 0.00 0.00 87 1013.8
20260904183116 87 109 1.0 15.0 0.00 0.00 0.00 86 1014.2
20260904181602 87 69 4.0 11.0 0.00 0.00 0.00 85 1014.0
20260904174604 88 107 4.0 10.0 0.00 0.00 0.00 83 1014.3
20260904173104 87 62 4.0 9.0 0.00 0.00 0.00 83 1014.2
20260904171604 86 88 3.0 14.0 0.00 0.00 0.00 86 1014.6
20260904170105 88 61 4.0 10.0 0.00 0.00 0.00 85 1014.9
20260904164606 87 90 4.0 11.0 0.00 0.00 0.00 85 1015.1
20260904163108 88 0 2.0 8.0 0.00 0.00 0.00 86 1015.1
20260904161604 87 142 3.0 10.0 0.00 0.00 0.00 86 1015.2
20260904160107 87 148 2.0 8.0 0.00 0.00 0.00 86 1015.6
20260904154603 87 105 3.0 8.0 0.00 0.00 0.00 86 1015.4
20260904153108 86 71 2.0 7.0 0.00 0.00 0.00 89 1015.3
20260904151600 86 84 2.0 7.0 0.00 0.00 0.00 87 1015.2
20260904150111 87 0 0.0 2.0 0.00 0.00 0.00 83 1015.1
20260904144602 86 0 0.0 5.0 0.00 0.00 0.00 82 1015.2
20260904143059 86 197 0.0 4.0 0.00 0.00 0.00 83 1015.1
20260904141604 85 207 0.0 5.0 0.00 0.00 0.00 84 1015.0
20260904140109 85 59 1.0 4.0 0.00 0.00 0.00 87 1014.9
20260904134559 85 0 0.0 4.0 0.00 0.00 0.00 87 1014.8
20260904133105 84 25 1.0 5.0 0.00 0.00 0.00 92 1015.0
20260904131606 82 0 1.0 3.0 0.00 0.00 0.00 97 1014.9
20260904130108 81 86 0.0 3.0 0.00 0.00 0.00 99 1014.9
20260904124608 81 0 0.0 3.0 0.00 0.00 0.00 100 1014.9
20260904123059 80 99 0.0 2.0 0.00 0.00 0.00 100 1014.6
20260904121602 79 0 0.0 1.0 0.00 0.00 0.00 100 1014.7
20260904120113 78 0 0.0 0.0 0.00 0.00 0.00 100 1014.7
20260904114604 77 0 0.0 0.0 0.00 0.00 0.00 100 1014.4
20260904113105 77 0 0.0 0.0 0.00 0.00 0.00 100 1014.4
20260904111604 77 0 0.0 0.0 0.00 0.00 0.00 100 1014.1
20260904110104 77 0 0.0 0.0 0.00 0.00 0.00 99 1013.9
20260904104607 77 0 0.0 0.0 0.00 0.00 0.00 99 1013.9
20260904103102 77 0 0.0 2.0 0.00 0.00 0.00 99 1013.8
20260904101609 77 0 0.0 0.0 0.00 0.00 0.00 99 1013.9
20260904100103 78 0 0.0 0.0 0.00 0.00 0.00 99 1013.7
20260904094603 78 0 0.0 0.0 0.00 0.00 0.00 99 1013.8
20260904093110 78 0 0.0 0.0 0.00 0.00 0.00 99 1013.6
20260904091601 78 0 0.0 0.0 0.00 0.00 0.00 99 1013.5
20260904090055 78 0 0.0 0.0 0.00 0.00 0.00 99 1013.4
20260904084602 78 0 0.0 0.0 0.00 0.00 0.00 99 1013.4
20260904083101 78 0 0.0 0.0 0.00 0.00 0.00 99 1013.2
20260904081603 78 0 0.0 0.0 0.00 0.00 0.00 99 1013.4
20260904080106 78 0 0.0 0.0 0.00 0.00 0.00 99 1013.4
20260904074603 78 0 0.0 0.0 0.00 0.00 0.00 98 1013.5
20260904073058 78 0 0.0 0.0 0.00 0.00 0.00 98 1013.5
20260904071604 78 0 0.0 0.0 0.00 0.00 0.00 98 1013.5
20260904064556 78 0 0.0 0.0 0.00 0.00 0.00 98 1013.5
20260904063059 78 0 0.0 0.0 0.00 0.00 0.00 98 1013.5
20260904061557 78 0 0.0 0.0 0.00 0.00 0.00 98 1013.6
20260904060100 78 0 0.0 0.0 0.00 0.00 0.00 97 1014.0
20260904054602 78 0 0.0 0.0 0.00 0.00 0.00 97 1013.9
20260904053103 78 0 0.0 0.0 0.00 0.00 0.00 97 1014.2
20260904051612 78 0 0.0 0.0 0.00 0.00 0.00 97 1014.7
20260904050109 79 0 0.0 0.0 0.00 0.00 0.00 97 1014.6
20260904044601 79 0 0.0 1.0 0.00 0.00 0.00 96 1014.6